Regional Weather Roundup
Issued by NWS Bismarck, ND

Home | Current Version | Previous Version | Text Only | Print | Product List | Glossary On
Versions: 1 2 3 4 5 6 7 8 9 10 11 12 13 14 15 16 17 18 19 20 21 22 23 24 25 26 27 28 29 30 31 32 33 34 35 36 37 38 39 40 41 42 43 44 45 46 47 48 49 50
000
ASUS43 KBIS 080110
RWRBIS

NWR BROADCAST TEXT
NATIONAL WEATHER SERVICE BISMARCK ND
700 PM CST SUN FEB 07 2016

NOTE: "FAIR" INDICATES FEW OR NO CLOUDS BELOW 12,000 FEET WITH NO
SIGNIFICANT WEATHER AND/OR OBSTRUCTIONS TO VISIBILITY.


CITY           SKY/WX    TMP DP  RH WIND       PRES   REMARKS
WILLISTON      CLEAR     32  18  56 NW21G37   30.25R WCI  20
MINOT          CLOUDY    32  17  54 NW36G44   30.12R WCI  16
MINOT AFB      CLOUDY    29  19  64 NW33G46   30.10R WCI  13
BISMARCK       CLOUDY    36  18  48 N21G30    30.10R
DICKINSON      CLEAR     29  14  53 NW22G35   30.18R WCI  15
GARRISON         N/A     32  20  61 NW35G45   30.11R WCI  17
HETTINGER ARPT PTCLDY    31  14  49 NW24G31   30.20R WCI  17
JAMESTOWN      CLOUDY    23  15  71 NW35G51   29.98R WCI   4
BEACH          MOCLDY    32  14  47 NW24G36   30.30R WCI  19
CARRINGTON     CLOUDY    23  19  86 NW28G37   30.03R WCI   6
HAZEN          CLOUDY    32  18  55 NW23G35   30.16R WCI  19
LINTON         FAIR      32  19  59 NW25G38   30.08R WCI  19
MANDAN         CLOUDY    32  18  55 NW29G47   30.09R WCI  18
OAKES          FLURRIES  23  18  80 N35G40    29.96R WCI   4
RUGBY          CLOUDY    23  18  80 NW25G35   30.05R WCI   7
STANLEY        MOCLDY    28  21  74 NW28G40   30.17R WCI  13
TIOGA          FLURRIES  28  23  80 NW25G38   30.24R WCI  14
WATFORD CITY   FAIR      32  18  55 NW18G24   30.24R
$$

CITY           SKY/WX    TMP DP  RH WIND       PRES   REMARKS
GRAND FORKS    SNOW      15  10  80 N29G44    29.98R VSB 1/2 WCI  -5
GRAND FORKS AF LGT SNOW  16  10  79 N24G36    29.98R WCI  -3
DEVILS LAKE    FLURRIES  19  13  77 N31G45    30.00R WCI   0
FARGO          LGT SNOW  17  12  80 N24       29.96R WCI  -1
CAVALIER       LGT SNOW  14   9  79 N26G38    30.01R VSB 1   WCI  -6
GRAFTON        LGT SNOW  12   9  85 N29G40    30.02R WCI  -9
GWINNER          N/A     23  19  86 N20       29.97R WCI   8
LANGDON        FLURRIES  14  10  85 N20G26    29.97R WCI  -3
ROLLA          FLURRIES  18  14  86 NW31G41   30.02R WCI  -2
WALHALLA       LGT SNOW  14  12  92 N22G31    30.03R WCI  -4
$$

CITY           SKY/WX    TMP DP  RH WIND       PRES   REMARKS
ABERDEEN       CLOUDY    30  17  58 NW33G44   30.00R WCI  14
MOBRIDGE       CLOUDY    35  17  47 NW25G39   30.06R
BUFFALO          N/A     31  12  45 NW28G37   30.19R WCI  17
RAPID CITY     CLEAR     33   9  36 NW28G37   30.23R WCI  20
GLASGOW        CLEAR     31  19  61 NW15      30.38R
SIDNEY         CLEAR     32  16  51 NW10      30.30R
WOLF POINT     CLEAR     34  20  56 NW16      30.36R
GLENDIVE       CLEAR     34  16  47 NW23G30   30.34R
MILES CITY     CLEAR     34  13  41 NW17      30.38R
BAKER          CLEAR     31  12  45 NW21G30   30.30R WCI  18
$$

CITY           SKY/WX    TMP DP  RH WIND       PRES   REMARKS
BILLINGS       PTCLDY    34   9  35 E6        30.44R
GREAT FALLS    CLOUDY    39  11  31 CALM      30.43R
REGINA         PTCLDY    27  19  74 NW21      30.26R WCI  13
ESTEVAN        PTCLDY    27  19  74 NW23G32   30.20R WCI  12
$$




USA.gov is the U.S. government's official web portal to all federal, state and local government web resources and services.